Wind_Speed
27 35 39 32 30 32 30 36 34 31 29 32 31 25 25 27 29 21 23 22 19 17
30 31 39 35 33 31 29 33 33 34 28 27 29 24 29 31 28 26 23 21 19 18
35 34 32 31 31 31 30 33 31 30 30 29 29 28 30 31 29 26 23 16 10 13
39 38 34 26 26 27 29 27 23 28 28 26 28 30 32 33 29 26 18 18 22 21
39 38 34 27 23 24 25 24 27 23 21 23 27 31 33 29 26 20 21 23 21 21
27 36 33 26 23 24 25 26 25 19 21 22 25 27 28 26 24 26 26 23 24 19
24 26 29 26 23 23 24 24 21 21 23 26 26 25 25 27 25 27 25 27 19 20
26 30 27 25 22 20 20 19 20 21 22 21 22 24 24 22 20 23 24 22 21 26
21 17 14 15 17 17 17 15 14 15 17 19 20 19 13 18 22 20 16 25 27 30
13 14 16 16 16 14 13 12 11 12 12 12 13 10 11 15 15 19 22 27 31 27
17 15 14 13 13 13 13 12 10 10 9 9 8 9 9 11 13 18 22 21 19 22
14 13 13 12 12 11 10 10 9 7 6 6 8 8 9 14 18 17 18 21 20 22
14 12 13 13 12 12 12 12 11 9 8 7 2 3 10 13 16 19 22 24 26 28
16 15 12 11 12 12 10 7 7 7 5 4 8 9 12 15 19 23 24 27 30 32
Wind_Direction
221 234 235 234 231 240 253 265 262 272 254 247 247 246 229 241 251 250 247 262 247 243
230 229 233 242 241 250 251 254 262 265 265 251 245 241 233 245 248 250 251 250 252 248
231 230 234 239 244 252 257 258 263 262 256 249 245 242 241 245 249 245 246 254 240 242
228 229 234 244 245 250 254 259 258 258 256 246 244 243 241 244 248 242 238 215 222 224
232 230 232 246 239 246 250 251 248 257 248 242 244 245 244 244 237 228 216 225 233 264
236 225 234 251 247 242 241 244 251 249 245 247 245 243 245 239 231 228 225 226 282 278
201 217 233 240 238 237 240 249 255 248 239 240 241 235 233 238 236 227 245 277 271 280
213 222 222 227 231 239 244 245 240 237 239 236 230 236 245 248 250 253 276 267 272 266
206 219 227 224 224 224 221 228 233 230 233 235 242 257 265 246 255 269 254 253 283 290
187 176 176 190 205 213 219 219 219 218 225 234 241 240 250 275 278 271 260 273 289 298
183 190 192 193 194 195 197 196 200 195 200 206 223 248 262 268 280 286 286 286 293 296
176 173 178 182 183 179 178 176 177 173 180 198 231 250 267 273 274 272 274 279 281 278
168 167 168 164 165 162 156 148 161 196 204 210 225 217 250 269 281 282 287 292 293 294
166 181 183 168 160 156 167 175 160 137 158 170 237 240 259 274 281 293 301 305 307 308
Height
1506 1510 1515 1517 1518 1521 1521 1524 1525 1527 1529 1531 1533 1535 1536 1537 1537 1541 1542 1542 1541 1542
1500 1502 1508 1510 1513 1513 1514 1517 1519 1520 1523 1526 1528 1529 1530 1531 1533 1534 1536 1536 1537 1537
1497 1498 1502 1505 1506 1507 1509 1510 1514 1516 1518 1519 1522 1523 1525 1526 1527 1528 1530 1532 1533 1535
1490 1493 1496 1499 1500 1501 1503 1506 1508 1511 1512 1513 1515 1517 1519 1520 1521 1522 1525 1524 1523 1525
1479 1487 1490 1493 1496 1497 1498 1501 1503 1504 1505 1507 1509 1512 1514 1515 1517 1517 1517 1519 1521 1522
1477 1482 1485 1488 1490 1491 1493 1495 1497 1498 1499 1502 1504 1507 1508 1509 1509 1511 1513 1513 1517 1519
1474 1479 1482 1483 1485 1487 1489 1491 1492 1493 1495 1497 1498 1500 1502 1503 1505 1507 1511 1513 1512 1514
1470 1474 1477 1479 1481 1483 1485 1486 1487 1489 1490 1492 1494 1496 1498 1501 1504 1507 1506 1506 1507 1507
1468 1470 1472 1474 1476 1477 1478 1481 1483 1485 1487 1489 1491 1494 1496 1499 1502 1502 1502 1502 1502 1502
1464 1466 1469 1470 1471 1474 1476 1478 1480 1482 1485 1487 1490 1492 1495 1497 1497 1498 1498 1499 1498 1496
1461 1463 1465 1468 1469 1472 1473 1475 1477 1480 1483 1485 1487 1490 1491 1492 1493 1493 1494 1493 1492 1490
1459 1461 1463 1465 1467 1469 1471 1473 1476 1478 1481 1483 1484 1486 1488 1488 1488 1488 1487 1487 1486 1484
1458 1460 1461 1463 1465 1468 1470 1473 1475 1477 1478 1480 1481 1482 1483 1483 1482 1481 1480 1479 1477 1476
1456 1458 1460 1462 1465 1468 1470 1472 1474 1476 1478 1479 1477 1478 1478 1477 1475 1474 1473 1470 1468 1466